sat.trackr.live / text

‹ back to catalog

STARLINK-6032

NORAD 57371 · 2023-099AV

PAYLOAD ACTIVE UNKNOWN

§ Identity

Operator
Country
US
Launch date
2023-07-16
Launch site
AFETR
Launch vehicle
Mass (kg)
RCS (m²)

Purposes: comms

External: N2YO · Heavens-Above · Gunter

§ Orbital elements

Epoch: 2026-09-20T04:05:57.333408Z

Period
94.27 min
Inclination
43.0010°
Eccentricity
0.0001283
Mean motion
15.27573596 rev/d
Perigee alt
482.2 km
Apogee alt
483.9 km
Semi-major
6,861.2 km
B*
1.2906e-6
RAAN
223.2682°
Arg perigee
268.3721°
Mean anomaly
91.6984°
Rev number
17,594

§ Raw data

STARLINK-60321 57371U 23099AV  26263.17080247 -.00000227  00000+0  12906-5 0  99982 57371  43.0010 223.2682 0001283 268.3721  91.6984 15.27573596175944

JSON: /api/v1/satellites/57371 · /tle

For live sub-satellite position, see the globe view (requires WebGL).

§ Visibility from observer

Set your observer location to see the next 7 days of passes ≥ 10°. The values pass through the URL so the page stays shareable.

No JS? Fill the form by hand. The geolocation button needs JavaScript.